EN

Hourly Weather Lac de Chalain

Today, 28 July, Wednesday

Time Temperature Precipitation Wind Pressure Humidity
00:00 +16°C° 0 mm 1 mps 718 mmHg 95%
01:00 +16°C° 1.2 mm 1 mps 718 mmHg 96%
02:00 +16°C° 1.2 mm 1 mps 718 mmHg 97%
03:00 +16°C° 1.2 mm 2 mps 718 mmHg 98%
04:00 +16°C° 0.8 mm 2 mps 718 mmHg 98%
05:00 +16°C° 0.8 mm 2 mps 718 mmHg 98%
06:00 +16°C° 0 mm 2 mps 718 mmHg 97%
07:00 +17°C° 0.1 mm 2 mps 718 mmHg 94%
08:00 +17°C° 0.1 mm 2 mps 718 mmHg 90%
09:00 +18°C° 0.1 mm 2 mps 718 mmHg 86%
10:00 +19°C° 0.1 mm 2 mps 719 mmHg 79%
11:00 +20°C° 0.1 mm 2 mps 719 mmHg 72%
12:00 +22°C° 0 mm 3 mps 719 mmHg 64%
13:00 +22°C° 0.1 mm 3 mps 719 mmHg 63%
14:00 +22°C° 0.1 mm 3 mps 719 mmHg 61%
15:00 +24°C° 0.1 mm 3 mps 719 mmHg 60%
16:00 +23°C° 0 mm 2 mps 719 mmHg 67%
17:00 +21°C° 0 mm 2 mps 719 mmHg 74%
18:00 +21°C° 0 mm 1 mps 719 mmHg 80%
19:00 +20°C° 0 mm 1 mps 719 mmHg 84%
20:00 +18°C° 0 mm 1 mps 719 mmHg 87%
21:00 +16°C° 0 mm 1 mps 719 mmHg 90%
22:00 +15°C° 0 mm 1 mps 719 mmHg 91%
23:00 +15°C° 0 mm 1 mps 719 mmHg 92%

Tomorrow, 29 July, Thursday

Time Temperature Precipitation Wind Pressure Humidity
00:00 +14°C° 0 mm 1 mps 719 mmHg 93%
01:00 +14°C° 0 mm 1 mps 719 mmHg 93%
02:00 +14°C° 0 mm 1 mps 719 mmHg 94%
03:00 +14°C° 0 mm 1 mps 718 mmHg 94%
04:00 +14°C° 0 mm 0 mps 719 mmHg 91%
05:00 +14°C° 0 mm 0 mps 719 mmHg 89%
06:00 +15°C° 0 mm 0 mps 719 mmHg 86%
07:00 +19°C° 0 mm 1 mps 719 mmHg 77%
08:00 +21°C° 0 mm 1 mps 719 mmHg 69%
09:00 +23°C° 0 mm 1 mps 719 mmHg 60%
10:00 +24°C° 0 mm 2 mps 719 mmHg 57%
11:00 +25°C° 0 mm 2 mps 719 mmHg 54%
12:00 +26°C° 0 mm 2 mps 718 mmHg 50%
13:00 +26°C° 0 mm 2 mps 718 mmHg 49%
14:00 +26°C° 0 mm 2 mps 718 mmHg 48%
15:00 +27°C° 0 mm 2 mps 718 mmHg 47%
16:00 +25°C° 0 mm 2 mps 717 mmHg 57%
17:00 +24°C° 0 mm 1 mps 717 mmHg 67%
18:00 +22°C° 0 mm 1 mps 717 mmHg 77%
19:00 +21°C° 0.5 mm 1 mps 717 mmHg 82%
20:00 +19°C° 0.5 mm 1 mps 717 mmHg 87%
21:00 +18°C° 0.5 mm 1 mps 716 mmHg 92%
22:00 +18°C° 0.7 mm 1 mps 716 mmHg 93%
23:00 +16°C° 0.7 mm 1 mps 716 mmHg 93%

Day after tomorrow, 30 July, Friday

Time Temperature Precipitation Wind Pressure Humidity
00:00 +16°C° 0.7 mm 1 mps 716 mmHg 94%
01:00 +16°C° 0.3 mm 1 mps 716 mmHg 94%
02:00 +16°C° 0.3 mm 1 mps 715 mmHg 94%
03:00 +15°C° 0.3 mm 1 mps 715 mmHg 95%
04:00 +16°C° 0.1 mm 1 mps 715 mmHg 95%
05:00 +18°C° 0.1 mm 1 mps 715 mmHg 94%
06:00 +19°C° 0.1 mm 1 mps 716 mmHg 94%
07:00 +20°C° 0 mm 2 mps 716 mmHg 85%
08:00 +22°C° 0 mm 3 mps 716 mmHg 75%
09:00 +25°C° 0 mm 4 mps 716 mmHg 66%
10:00 +25°C° 0 mm 4 mps 716 mmHg 65%
11:00 +26°C° 0 mm 4 mps 716 mmHg 63%
12:00 +26°C° 0 mm 4 mps 716 mmHg 62%
13:00 +25°C° 0.3 mm 3 mps 716 mmHg 69%
14:00 +24°C° 0.3 mm 3 mps 716 mmHg 76%
15:00 +23°C° 0.3 mm 2 mps 716 mmHg 83%
16:00 +21°C° 0.4 mm 2 mps 716 mmHg 87%
17:00 +20°C° 0.4 mm 2 mps 716 mmHg 91%
18:00 +20°C° 0.4 mm 1 mps 716 mmHg 95%
19:00 +19°C° 0.1 mm 1 mps 716 mmHg 94%
20:00 +18°C° 0.1 mm 1 mps 717 mmHg 93%
21:00 +18°C° 0.1 mm 1 mps 717 mmHg 92%
22:00 +18°C° 0 mm 1 mps 717 mmHg 93%
23:00 +16°C° 0 mm 1 mps 717 mmHg 93%

31 July, Saturday

Time Temperature Precipitation Wind Pressure Humidity
00:00 +16°C° 0 mm 1 mps 717 mmHg 94%
01:00 +16°C° 0 mm 1 mps 717 mmHg 94%
02:00 +16°C° 0 mm 1 mps 717 mmHg 95%
03:00 +16°C° 0 mm 1 mps 717 mmHg 95%
04:00 +16°C° 0 mm 1 mps 717 mmHg 95%
05:00 +15°C° 0 mm 0 mps 717 mmHg 94%
06:00 +15°C° 0 mm 0 mps 717 mmHg 94%
07:00 +18°C° 0 mm 1 mps 717 mmHg 84%
08:00 +20°C° 0 mm 1 mps 717 mmHg 75%
09:00 +21°C° 0 mm 1 mps 717 mmHg 66%
10:00 +21°C° 0 mm 2 mps 717 mmHg 62%
11:00 +23°C° 0 mm 2 mps 717 mmHg 58%
12:00 +24°C° 0 mm 2 mps 716 mmHg 54%
13:00 +24°C° 0 mm 2 mps 716 mmHg 54%
14:00 +24°C° 0 mm 2 mps 716 mmHg 55%
15:00 +22°C° 0 mm 3 mps 715 mmHg 56%
16:00 +21°C° 0 mm 2 mps 715 mmHg 64%
17:00 +20°C° 0 mm 2 mps 715 mmHg 72%
18:00 +18°C° 0 mm 2 mps 715 mmHg 80%
19:00 +18°C° 0.1 mm 1 mps 715 mmHg 84%
20:00 +16°C° 0.1 mm 1 mps 715 mmHg 88%
21:00 +15°C° 0.1 mm 1 mps 715 mmHg 92%
22:00 +15°C° 0.2 mm 1 mps 715 mmHg 93%
23:00 +15°C° 0.2 mm 1 mps 715 mmHg 95%

1 August, Sunday

Time Temperature Precipitation Wind Pressure Humidity
00:00 +15°C° 0.2 mm 1 mps 715 mmHg 96%
01:00 +15°C° 0.3 mm 1 mps 715 mmHg 96%
02:00 +14°C° 0.3 mm 1 mps 715 mmHg 96%
03:00 +14°C° 0.3 mm 1 mps 715 mmHg 97%
04:00 +14°C° 0.3 mm 1 mps 715 mmHg 97%
05:00 +14°C° 0.3 mm 1 mps 716 mmHg 97%
06:00 +14°C° 0.3 mm 1 mps 716 mmHg 97%
07:00 +14°C° 0.4 mm 1 mps 716 mmHg 95%
08:00 +15°C° 0.4 mm 1 mps 716 mmHg 94%
09:00 +15°C° 0.4 mm 1 mps 716 mmHg 92%
10:00 +16°C° 0.6 mm 1 mps 717 mmHg 88%
11:00 +18°C° 0.6 mm 1 mps 717 mmHg 84%
12:00 +19°C° 0.6 mm 1 mps 717 mmHg 81%
13:00 +19°C° 0.8 mm 1 mps 717 mmHg 81%
14:00 +19°C° 0.8 mm 1 mps 717 mmHg 82%
15:00 +19°C° 0.8 mm 1 mps 717 mmHg 83%
16:00 +19°C° 0.6 mm 1 mps 717 mmHg 85%
17:00 +18°C° 0.6 mm 1 mps 717 mmHg 88%
18:00 +18°C° 0.6 mm 1 mps 717 mmHg 90%
19:00 +16°C° 0.1 mm 1 mps 717 mmHg 91%
20:00 +15°C° 0.1 mm 1 mps 717 mmHg 92%
21:00 +14°C° 0.1 mm 1 mps 718 mmHg 93%
22:00 +13°C° 0 mm 1 mps 718 mmHg 93%
23:00 +13°C° 0 mm 1 mps 718 mmHg 92%

2 August, Monday

Time Temperature Precipitation Wind Pressure Humidity
00:00 +13°C° 0 mm 1 mps 718 mmHg 92%
01:00 +13°C° 0 mm 1 mps 718 mmHg 92%
02:00 +13°C° 0 mm 1 mps 718 mmHg 92%
03:00 +13°C° 0 mm 1 mps 718 mmHg 91%
04:00 +13°C° 0 mm 1 mps 718 mmHg 91%
05:00 +14°C° 0 mm 1 mps 718 mmHg 91%
06:00 +14°C° 0 mm 1 mps 719 mmHg 91%
07:00 +16°C° 0.1 mm 1 mps 719 mmHg 85%
08:00 +17°C° 0.1 mm 2 mps 719 mmHg 80%
09:00 +18°C° 0.1 mm 2 mps 719 mmHg 75%
10:00 +19°C° 0.3 mm 2 mps 719 mmHg 71%
11:00 +20°C° 0.3 mm 2 mps 719 mmHg 67%
12:00 +21°C° 0.3 mm 3 mps 719 mmHg 63%
13:00 +21°C° 0.3 mm 2 mps 719 mmHg 65%
14:00 +20°C° 0.3 mm 2 mps 719 mmHg 68%
15:00 +20°C° 0.3 mm 2 mps 719 mmHg 71%
16:00 +20°C° 0.2 mm 2 mps 719 mmHg 76%
17:00 +20°C° 0.2 mm 1 mps 719 mmHg 81%
18:00 +19°C° 0.2 mm 1 mps 719 mmHg 86%
19:00 +18°C° 0 mm 1 mps 719 mmHg 87%
20:00 +15°C° 0 mm 1 mps 719 mmHg 89%
21:00 +14°C° 0 mm 1 mps 719 mmHg 90%
22:00 +14°C° 0 mm 1 mps 719 mmHg 90%
23:00 +14°C° 0 mm 1 mps 719 mmHg 89%
Show more